Year,Month,Day,Hour,Minute,Value (Times are PST for windspeed in km/hr)
2013,10,02,00,00,0.00
2013,10,02,00,01,0.90
2013,10,02,00,02,1.30
2013,10,02,00,03,0.50
2013,10,02,00,04,2.00
2013,10,02,00,05,0.80
2013,10,02,00,06,1.20
2013,10,02,00,07,0.00
2013,10,02,00,08,1.20
2013,10,02,00,09,1.50
2013,10,02,00,10,0.00
2013,10,02,00,11,0.00
2013,10,02,00,12,0.00
2013,10,02,00,13,0.00
2013,10,02,00,14,0.00
2013,10,02,00,15,0.00
2013,10,02,00,16,0.00
2013,10,02,00,17,0.00
2013,10,02,00,18,0.00
2013,10,02,00,19,0.10
2013,10,02,00,20,0.10
2013,10,02,00,21,0.50
2013,10,02,00,22,0.00
2013,10,02,00,23,0.00
2013,10,02,00,24,0.00
2013,10,02,00,25,2.40
2013,10,02,00,26,3.10
2013,10,02,00,27,2.70
2013,10,02,00,28,1.90
2013,10,02,00,29,0.70
2013,10,02,00,30,0.80
2013,10,02,00,31,1.10
2013,10,02,00,32,2.30
2013,10,02,00,33,2.60
2013,10,02,00,34,0.30
2013,10,02,00,35,0.50
2013,10,02,00,36,0.50
2013,10,02,00,37,2.20
2013,10,02,00,38,3.10
2013,10,02,00,39,4.20
2013,10,02,00,40,3.10
2013,10,02,00,41,2.60
2013,10,02,00,42,2.50
2013,10,02,00,43,5.50
2013,10,02,00,44,4.50
2013,10,02,00,45,5.30
2013,10,02,00,46,3.80
2013,10,02,00,47,3.70
2013,10,02,00,48,2.30
2013,10,02,00,49,4.60
2013,10,02,00,50,4.20
2013,10,02,00,51,3.40
2013,10,02,00,52,6.90
2013,10,02,00,53,6.30
2013,10,02,00,54,5.00
2013,10,02,00,55,4.80
2013,10,02,00,56,7.70
2013,10,02,00,57,4.50
2013,10,02,00,58,6.30
2013,10,02,00,59,7.50
2013,10,02,01,00,5.30
2013,10,02,01,01,7.30
2013,10,02,01,02,5.10
2013,10,02,01,03,4.50
2013,10,02,01,04,3.70
2013,10,02,01,05,3.80
2013,10,02,01,06,3.10
2013,10,02,01,07,2.60
2013,10,02,01,08,4.50
2013,10,02,01,09,5.70
2013,10,02,01,10,3.10
2013,10,02,01,11,4.40
2013,10,02,01,12,4.60
2013,10,02,01,13,4.20
2013,10,02,01,14,5.00
2013,10,02,01,15,3.40
2013,10,02,01,16,5.00
2013,10,02,01,17,3.10
2013,10,02,01,18,5.20
2013,10,02,01,19,3.10
2013,10,02,01,20,1.90
2013,10,02,01,21,2.00
2013,10,02,01,22,2.30
2013,10,02,01,23,3.70
2013,10,02,01,24,2.70
2013,10,02,01,25,4.30
2013,10,02,01,26,5.90
2013,10,02,01,27,3.40
2013,10,02,01,28,1.80
2013,10,02,01,29,0.00
2013,10,02,01,30,0.00
2013,10,02,01,31,2.20
2013,10,02,01,32,4.00
2013,10,02,01,33,6.00
2013,10,02,01,34,3.90
2013,10,02,01,35,5.70
2013,10,02,01,36,5.00
2013,10,02,01,37,4.00
2013,10,02,01,38,4.60
2013,10,02,01,39,4.20
2013,10,02,01,40,2.30
2013,10,02,01,41,1.50
2013,10,02,01,42,1.30
2013,10,02,01,43,0.00
2013,10,02,01,44,1.50
2013,10,02,01,45,0.20
2013,10,02,01,46,2.20
2013,10,02,01,47,0.10
2013,10,02,01,48,1.30
2013,10,02,01,49,1.10
2013,10,02,01,50,2.00
2013,10,02,01,51,1.70
2013,10,02,01,52,2.50
2013,10,02,01,53,3.20
2013,10,02,01,54,3.70
2013,10,02,01,55,3.10
2013,10,02,01,56,1.90
2013,10,02,01,57,2.20
2013,10,02,01,58,1.70
2013,10,02,01,59,0.80
2013,10,02,02,00,1.80
2013,10,02,02,01,1.20
2013,10,02,02,02,2.20
2013,10,02,02,03,1.60
2013,10,02,02,04,2.40
2013,10,02,02,05,1.00
2013,10,02,02,06,1.00
2013,10,02,02,07,0.40
2013,10,02,02,08,0.60
2013,10,02,02,09,1.30
2013,10,02,02,10,1.60
2013,10,02,02,11,0.80
2013,10,02,02,12,0.70
2013,10,02,02,13,0.70
2013,10,02,02,14,2.00
2013,10,02,02,15,1.50
2013,10,02,02,16,1.30
2013,10,02,02,17,0.40
2013,10,02,02,18,1.30
2013,10,02,02,19,0.10
2013,10,02,02,20,0.70
2013,10,02,02,21,0.30
2013,10,02,02,22,0.00
2013,10,02,02,23,0.00
2013,10,02,02,24,0.00
2013,10,02,02,25,0.00
2013,10,02,02,26,0.00
2013,10,02,02,27,0.00
2013,10,02,02,28,0.00
2013,10,02,02,29,1.10
2013,10,02,02,30,1.30
2013,10,02,02,31,2.30
2013,10,02,02,32,0.20
2013,10,02,02,33,1.10
2013,10,02,02,34,0.70
2013,10,02,02,35,0.10
2013,10,02,02,36,0.10
2013,10,02,02,37,0.00
2013,10,02,02,38,0.00
2013,10,02,02,39,0.50
2013,10,02,02,40,0.80
2013,10,02,02,41,1.50
2013,10,02,02,42,1.80
2013,10,02,02,43,1.90
2013,10,02,02,44,2.00
2013,10,02,02,45,5.80
2013,10,02,02,46,5.30
2013,10,02,02,47,9.10
2013,10,02,02,48,6.00
2013,10,02,02,49,10.40
2013,10,02,02,50,11.50
2013,10,02,02,51,10.70
2013,10,02,02,52,9.60
2013,10,02,02,53,6.30
2013,10,02,02,54,4.80
2013,10,02,02,55,2.80
2013,10,02,02,56,3.70
2013,10,02,02,57,2.50
2013,10,02,02,58,2.50
2013,10,02,02,59,2.20
2013,10,02,03,00,0.40
2013,10,02,03,01,1.10
2013,10,02,03,02,2.00
2013,10,02,03,03,1.30
2013,10,02,03,04,1.80
2013,10,02,03,05,3.10
2013,10,02,03,06,0.30
2013,10,02,03,07,2.60
2013,10,02,03,08,2.50
2013,10,02,03,09,1.50
2013,10,02,03,10,0.70
2013,10,02,03,11,0.00
2013,10,02,03,12,1.40
2013,10,02,03,13,2.20
2013,10,02,03,14,1.80
2013,10,02,03,15,0.80
2013,10,02,03,16,1.60
2013,10,02,03,17,3.10
2013,10,02,03,18,1.10
2013,10,02,03,19,0.10
2013,10,02,03,20,0.60
2013,10,02,03,21,0.20
2013,10,02,03,22,1.00
2013,10,02,03,23,1.70
2013,10,02,03,24,0.20
2013,10,02,03,25,0.00
2013,10,02,03,26,2.60
2013,10,02,03,27,1.70
2013,10,02,03,28,1.30
2013,10,02,03,29,0.90
2013,10,02,03,30,0.00
2013,10,02,03,31,1.20
2013,10,02,03,32,2.40
2013,10,02,03,33,0.70
2013,10,02,03,34,0.50
2013,10,02,03,35,0.70
2013,10,02,03,36,3.70
2013,10,02,03,37,2.90
2013,10,02,03,38,3.60
2013,10,02,03,39,2.40
2013,10,02,03,40,2.60
2013,10,02,03,41,3.50
2013,10,02,03,42,3.60
2013,10,02,03,43,2.50
2013,10,02,03,44,2.80
2013,10,02,03,45,1.90
2013,10,02,03,46,4.50
2013,10,02,03,47,4.00
2013,10,02,03,48,5.40
2013,10,02,03,49,5.10
2013,10,02,03,50,1.10
2013,10,02,03,51,2.70
2013,10,02,03,52,3.40
2013,10,02,03,53,2.80
2013,10,02,03,54,0.10
2013,10,02,03,55,0.00
2013,10,02,03,56,0.80
2013,10,02,03,57,2.00
2013,10,02,03,58,2.90
2013,10,02,03,59,0.10
2013,10,02,04,00,0.10
2013,10,02,04,01,0.10
2013,10,02,04,02,0.00
2013,10,02,04,03,0.00
2013,10,02,04,04,0.00
2013,10,02,04,05,0.00
2013,10,02,04,06,0.00
2013,10,02,04,07,0.00
2013,10,02,04,08,0.00
2013,10,02,04,09,0.60
2013,10,02,04,10,1.20
2013,10,02,04,11,1.60
2013,10,02,04,12,0.40
2013,10,02,04,13,0.10
2013,10,02,04,14,0.00
2013,10,02,04,15,0.00
2013,10,02,04,16,0.00
2013,10,02,04,17,0.00
2013,10,02,04,18,0.00
2013,10,02,04,19,0.00
2013,10,02,04,20,0.00
2013,10,02,04,21,0.10
2013,10,02,04,22,0.00
2013,10,02,04,23,0.00
2013,10,02,04,24,0.00
2013,10,02,04,25,0.00
2013,10,02,04,26,0.00
2013,10,02,04,27,0.20
2013,10,02,04,28,0.20
2013,10,02,04,29,0.10
2013,10,02,04,30,0.30
2013,10,02,04,31,1.10
2013,10,02,04,32,0.20
2013,10,02,04,33,0.00
2013,10,02,04,34,0.00
2013,10,02,04,35,0.10
2013,10,02,04,36,0.40
2013,10,02,04,37,0.40
2013,10,02,04,38,0.70
2013,10,02,04,39,0.00
2013,10,02,04,40,0.00
2013,10,02,04,41,0.00
2013,10,02,04,42,0.00
2013,10,02,04,43,0.00
2013,10,02,04,44,0.00
2013,10,02,04,45,0.00
2013,10,02,04,46,0.00
2013,10,02,04,47,0.00
2013,10,02,04,48,0.00
2013,10,02,04,49,0.00
2013,10,02,04,50,0.00
2013,10,02,04,51,0.00
2013,10,02,04,52,0.00
2013,10,02,04,53,0.00
2013,10,02,04,54,0.00
2013,10,02,04,55,0.00
2013,10,02,04,56,0.10
2013,10,02,04,57,1.10
2013,10,02,04,58,0.90
2013,10,02,04,59,0.10
2013,10,02,05,00,0.00
2013,10,02,05,01,0.00
2013,10,02,05,02,0.00
2013,10,02,05,03,0.00
2013,10,02,05,04,0.00
2013,10,02,05,05,0.00
2013,10,02,05,06,0.00
2013,10,02,05,07,0.50
2013,10,02,05,08,2.10
2013,10,02,05,09,1.60
2013,10,02,05,10,0.50
2013,10,02,05,11,0.30
2013,10,02,05,12,0.00
2013,10,02,05,13,0.00
2013,10,02,05,14,0.10
2013,10,02,05,15,0.10
2013,10,02,05,16,0.00
2013,10,02,05,17,0.00
2013,10,02,05,18,0.00
2013,10,02,05,19,0.30
2013,10,02,05,20,0.80
2013,10,02,05,21,1.00
2013,10,02,05,22,1.50
2013,10,02,05,23,1.20
2013,10,02,05,24,1.40
2013,10,02,05,25,1.60
2013,10,02,05,26,0.00
2013,10,02,05,27,1.50
2013,10,02,05,28,1.60
2013,10,02,05,29,0.20
2013,10,02,05,30,0.00
2013,10,02,05,31,0.00
2013,10,02,05,32,0.00
2013,10,02,05,33,0.00
2013,10,02,05,34,0.00
2013,10,02,05,35,0.00
2013,10,02,05,36,0.10
2013,10,02,05,37,0.00
2013,10,02,05,38,1.60
2013,10,02,05,39,1.40
2013,10,02,05,40,1.60
2013,10,02,05,41,1.50
2013,10,02,05,42,1.30
2013,10,02,05,43,1.20
2013,10,02,05,44,0.20
2013,10,02,05,45,0.00
2013,10,02,05,46,0.00
2013,10,02,05,47,0.00
2013,10,02,05,48,0.10
2013,10,02,05,49,0.00
2013,10,02,05,50,0.00
2013,10,02,05,51,0.00
2013,10,02,05,52,0.10
2013,10,02,05,53,0.00
2013,10,02,05,54,0.00
2013,10,02,05,55,0.00
2013,10,02,05,56,0.10
2013,10,02,05,57,0.10
2013,10,02,05,58,1.60
2013,10,02,05,59,2.00
2013,10,02,06,00,2.00
2013,10,02,06,01,1.20
2013,10,02,06,02,1.70
2013,10,02,06,03,1.80
2013,10,02,06,04,1.80
2013,10,02,06,05,0.80
2013,10,02,06,06,0.30
2013,10,02,06,07,0.10
2013,10,02,06,08,0.00
2013,10,02,06,09,0.00
2013,10,02,06,10,0.00
2013,10,02,06,11,0.00
2013,10,02,06,12,0.00
2013,10,02,06,13,0.00
2013,10,02,06,14,0.00
2013,10,02,06,15,0.00
2013,10,02,06,16,0.00
2013,10,02,06,17,0.00
2013,10,02,06,18,0.00
2013,10,02,06,19,0.00
2013,10,02,06,20,0.00
2013,10,02,06,21,0.00
2013,10,02,06,22,0.00
2013,10,02,06,23,0.00
2013,10,02,06,24,0.00
2013,10,02,06,25,0.70
2013,10,02,06,26,0.80
2013,10,02,06,27,0.20
2013,10,02,06,28,0.80
2013,10,02,06,29,0.70
2013,10,02,06,30,0.00
2013,10,02,06,31,0.00
2013,10,02,06,32,0.00
2013,10,02,06,33,0.00
2013,10,02,06,34,0.00
2013,10,02,06,35,0.00
2013,10,02,06,36,1.20
2013,10,02,06,37,0.00
2013,10,02,06,38,0.00
2013,10,02,06,39,0.00
2013,10,02,06,40,0.00
2013,10,02,06,41,0.00
2013,10,02,06,42,0.00
2013,10,02,06,43,0.50
2013,10,02,06,44,0.60
2013,10,02,06,45,1.60
2013,10,02,06,46,0.10
2013,10,02,06,47,1.40
2013,10,02,06,48,2.10
2013,10,02,06,49,3.10
2013,10,02,06,50,2.10
2013,10,02,06,51,2.10
2013,10,02,06,52,0.70
2013,10,02,06,53,1.50
2013,10,02,06,54,0.60
2013,10,02,06,55,0.30
2013,10,02,06,56,0.00
2013,10,02,06,57,0.00
2013,10,02,06,58,0.00
2013,10,02,06,59,0.00
2013,10,02,07,00,0.00
2013,10,02,07,01,0.00
2013,10,02,07,02,0.10
2013,10,02,07,03,0.00
2013,10,02,07,04,0.00
2013,10,02,07,05,0.00
2013,10,02,07,06,0.10
2013,10,02,07,07,0.10
2013,10,02,07,08,1.30
2013,10,02,07,09,1.10
2013,10,02,07,10,2.50
2013,10,02,07,11,2.10
2013,10,02,07,12,3.20
2013,10,02,07,13,3.40
2013,10,02,07,14,2.80
2013,10,02,07,15,0.50
2013,10,02,07,16,1.70
2013,10,02,07,17,2.70
2013,10,02,07,18,2.20
2013,10,02,07,19,3.90
2013,10,02,07,20,1.50
2013,10,02,07,21,2.40
2013,10,02,07,22,1.30
2013,10,02,07,23,1.80
2013,10,02,07,24,3.40
2013,10,02,07,25,1.20
2013,10,02,07,26,1.50
2013,10,02,07,27,2.30
2013,10,02,07,28,1.10
2013,10,02,07,29,2.20
2013,10,02,07,30,0.20
2013,10,02,07,31,0.00
2013,10,02,07,32,1.50
2013,10,02,07,33,0.00
2013,10,02,07,34,1.10
2013,10,02,07,35,1.50
2013,10,02,07,36,2.90
2013,10,02,07,37,1.30
2013,10,02,07,38,0.20
2013,10,02,07,39,0.10
2013,10,02,07,40,0.00
2013,10,02,07,41,0.00
2013,10,02,07,42,0.00
2013,10,02,07,43,0.00
2013,10,02,07,44,0.00
2013,10,02,07,45,0.00
2013,10,02,07,46,0.00
2013,10,02,07,47,0.00
2013,10,02,07,48,1.80
2013,10,02,07,49,3.10
2013,10,02,07,50,4.80
2013,10,02,07,51,5.70
2013,10,02,07,52,3.40
2013,10,02,07,53,1.90
2013,10,02,07,54,2.60
2013,10,02,07,55,3.10
2013,10,02,07,56,3.30
2013,10,02,07,57,5.10
2013,10,02,07,58,2.90
2013,10,02,07,59,3.00
2013,10,02,08,00,1.20
2013,10,02,08,01,3.10
2013,10,02,08,02,2.90
2013,10,02,08,03,3.90
2013,10,02,08,04,2.80
2013,10,02,08,05,3.70
2013,10,02,08,06,3.70
2013,10,02,08,07,4.00
2013,10,02,08,08,3.60
2013,10,02,08,09,4.30
2013,10,02,08,10,3.30
2013,10,02,08,11,5.30
2013,10,02,08,12,2.30
2013,10,02,08,13,2.80
2013,10,02,08,14,4.80
2013,10,02,08,15,3.30
2013,10,02,08,16,2.50
2013,10,02,08,17,3.10
2013,10,02,08,18,2.70
2013,10,02,08,19,3.40
2013,10,02,08,20,2.60
2013,10,02,08,21,1.30
2013,10,02,08,22,3.30
2013,10,02,08,23,3.20
2013,10,02,08,24,2.50
2013,10,02,08,25,1.80
2013,10,02,08,26,3.10
2013,10,02,08,27,4.80
2013,10,02,08,28,2.60
2013,10,02,08,29,3.80
2013,10,02,08,30,4.00
2013,10,02,08,31,4.20
2013,10,02,08,32,5.30
2013,10,02,08,33,4.20
2013,10,02,08,34,4.30
2013,10,02,08,35,2.70
2013,10,02,08,36,4.30
2013,10,02,08,37,4.90
2013,10,02,08,38,5.30
2013,10,02,08,39,3.30
2013,10,02,08,40,7.90
2013,10,02,08,41,5.50
2013,10,02,08,42,3.10
2013,10,02,08,43,4.40
2013,10,02,08,44,3.30
2013,10,02,08,45,3.10
2013,10,02,08,46,2.30
2013,10,02,08,47,2.70
2013,10,02,08,48,4.80
2013,10,02,08,49,4.40
2013,10,02,08,50,3.70
2013,10,02,08,51,4.50
2013,10,02,08,52,2.70
2013,10,02,08,53,4.30
2013,10,02,08,54,1.30
2013,10,02,08,55,1.00
2013,10,02,08,56,1.00
2013,10,02,08,57,3.10
2013,10,02,08,58,2.90
2013,10,02,08,59,1.50
2013,10,02,09,00,3.10
2013,10,02,09,01,1.50
2013,10,02,09,02,2.30
2013,10,02,09,03,1.70
2013,10,02,09,04,3.10
2013,10,02,09,05,2.70
2013,10,02,09,06,5.00
2013,10,02,09,07,2.00
2013,10,02,09,08,4.30
2013,10,02,09,09,5.50
2013,10,02,09,10,5.00
2013,10,02,09,11,1.80
2013,10,02,09,12,3.80
2013,10,02,09,13,2.90
2013,10,02,09,14,1.80
2013,10,02,09,15,2.80
2013,10,02,09,16,2.70
2013,10,02,09,17,3.80
2013,10,02,09,18,3.10
2013,10,02,09,19,4.10
2013,10,02,09,20,6.60
2013,10,02,09,21,7.60
2013,10,02,09,22,6.00
2013,10,02,09,23,5.00
2013,10,02,09,24,7.10
2013,10,02,09,25,6.50
2013,10,02,09,26,5.50
2013,10,02,09,27,6.70
2013,10,02,09,28,4.30
2013,10,02,09,29,4.30
2013,10,02,09,30,3.80
2013,10,02,09,31,3.60
2013,10,02,09,32,2.80
2013,10,02,09,33,3.20
2013,10,02,09,34,7.20
2013,10,02,09,35,6.70
2013,10,02,09,36,4.10
2013,10,02,09,37,4.90
2013,10,02,09,38,5.30
2013,10,02,09,39,3.60
2013,10,02,09,40,3.10
2013,10,02,09,41,7.60
2013,10,02,09,42,5.60
2013,10,02,09,43,6.40
2013,10,02,09,44,8.40
2013,10,02,09,45,8.60
2013,10,02,09,46,7.60
2013,10,02,09,47,9.20
2013,10,02,09,48,8.30
2013,10,02,09,49,7.00
2013,10,02,09,50,4.20
2013,10,02,09,51,6.60
2013,10,02,09,52,7.40
2013,10,02,09,53,6.30
2013,10,02,09,54,6.20
2013,10,02,09,55,7.30
2013,10,02,09,56,6.30
2013,10,02,09,57,5.50
2013,10,02,09,58,6.70
2013,10,02,09,59,5.60
2013,10,02,10,00,4.30
2013,10,02,10,01,4.70
2013,10,02,10,02,5.40
2013,10,02,10,03,4.20
2013,10,02,10,04,6.90
2013,10,02,10,05,3.10
2013,10,02,10,06,1.20
2013,10,02,10,07,6.20
2013,10,02,10,08,7.70
2013,10,02,10,09,6.30
2013,10,02,10,10,5.20
2013,10,02,10,11,2.60
2013,10,02,10,12,3.10
2013,10,02,10,13,3.30
2013,10,02,10,14,4.70
2013,10,02,10,15,6.30
2013,10,02,10,16,6.70
2013,10,02,10,17,5.40
2013,10,02,10,18,4.80
2013,10,02,10,19,6.10
2013,10,02,10,20,7.10
2013,10,02,10,21,5.60
2013,10,02,10,22,5.00
2013,10,02,10,23,5.00
2013,10,02,10,24,2.80
2013,10,02,10,25,3.50
2013,10,02,10,26,3.10
2013,10,02,10,27,6.30
2013,10,02,10,28,8.30
2013,10,02,10,29,6.30
2013,10,02,10,30,8.00
2013,10,02,10,31,6.30
2013,10,02,10,32,6.20
2013,10,02,10,33,3.50
2013,10,02,10,34,2.60
2013,10,02,10,35,5.90
2013,10,02,10,36,8.10
2013,10,02,10,37,9.20
2013,10,02,10,38,8.90
2013,10,02,10,39,9.60
2013,10,02,10,40,7.30
2013,10,02,10,41,6.80
2013,10,02,10,42,9.20
2013,10,02,10,43,9.20
2013,10,02,10,44,9.80
2013,10,02,10,45,9.70
2013,10,02,10,46,9.90
2013,10,02,10,47,12.40
2013,10,02,10,48,11.90
2013,10,02,10,49,9.30
2013,10,02,10,50,8.10
2013,10,02,10,51,10.40
2013,10,02,10,52,10.80
2013,10,02,10,53,5.90
2013,10,02,10,54,9.50
2013,10,02,10,55,7.40
2013,10,02,10,56,6.80
2013,10,02,10,57,7.80
2013,10,02,10,58,5.70
2013,10,02,10,59,7.00
2013,10,02,11,00,10.10
2013,10,02,11,01,7.50
2013,10,02,11,02,7.10
2013,10,02,11,03,8.00
2013,10,02,11,04,5.90
2013,10,02,11,05,5.60
2013,10,02,11,06,7.00
2013,10,02,11,07,7.40
2013,10,02,11,08,6.80
2013,10,02,11,09,6.80
2013,10,02,11,10,6.10
2013,10,02,11,11,4.80
2013,10,02,11,12,2.70
2013,10,02,11,13,4.00
2013,10,02,11,14,3.70
2013,10,02,11,15,6.50
2013,10,02,11,16,8.00
2013,10,02,11,17,7.90
2013,10,02,11,18,9.50
2013,10,02,11,19,9.60
2013,10,02,11,20,6.10
2013,10,02,11,21,9.90
2013,10,02,11,22,9.70
2013,10,02,11,23,7.90
2013,10,02,11,24,4.80
2013,10,02,11,25,7.00
2013,10,02,11,26,6.20
2013,10,02,11,27,6.90
2013,10,02,11,28,4.60
2013,10,02,11,29,5.60
2013,10,02,11,30,6.40
2013,10,02,11,31,6.10
2013,10,02,11,32,4.50
2013,10,02,11,33,5.60
2013,10,02,11,34,2.90
2013,10,02,11,35,4.10
2013,10,02,11,36,4.30
2013,10,02,11,37,4.90
2013,10,02,11,38,4.60
2013,10,02,11,39,6.10
2013,10,02,11,40,6.90
2013,10,02,11,41,6.90
2013,10,02,11,42,7.60
2013,10,02,11,43,6.20
2013,10,02,11,44,4.00
2013,10,02,11,45,3.30
2013,10,02,11,46,4.60
2013,10,02,11,47,5.00
2013,10,02,11,48,2.10
2013,10,02,11,49,2.30
2013,10,02,11,50,4.30
2013,10,02,11,51,2.70
2013,10,02,11,52,4.30
2013,10,02,11,53,3.80
2013,10,02,11,54,6.60
2013,10,02,11,55,6.40
2013,10,02,11,56,6.00
2013,10,02,11,57,7.50
2013,10,02,11,58,5.30
2013,10,02,11,59,4.10
2013,10,02,12,00,6.60
2013,10,02,12,01,4.60
2013,10,02,12,02,5.40
2013,10,02,12,03,4.00
2013,10,02,12,04,3.60
2013,10,02,12,05,9.10
2013,10,02,12,06,9.30
2013,10,02,12,07,5.50
2013,10,02,12,08,7.70
2013,10,02,12,09,8.60
2013,10,02,12,10,5.70
2013,10,02,12,11,7.60
2013,10,02,12,12,8.90
2013,10,02,12,13,7.20
2013,10,02,12,14,4.50
2013,10,02,12,15,4.50
2013,10,02,12,16,6.20
2013,10,02,12,17,3.90
2013,10,02,12,18,5.40
2013,10,02,12,19,5.00
2013,10,02,12,20,4.30
2013,10,02,12,21,8.30
2013,10,02,12,22,6.90
2013,10,02,12,23,5.80
2013,10,02,12,24,5.20
2013,10,02,12,25,4.00
2013,10,02,12,26,5.30
2013,10,02,12,27,5.80
2013,10,02,12,28,6.20
2013,10,02,12,29,6.10
2013,10,02,12,30,6.50
2013,10,02,12,31,7.60
2013,10,02,12,32,6.40
2013,10,02,12,33,6.40
2013,10,02,12,34,6.40
2013,10,02,12,35,6.40
2013,10,02,12,36,6.40
2013,10,02,12,37,6.30
2013,10,02,12,38,5.30
2013,10,02,12,39,2.50
2013,10,02,12,40,3.40
2013,10,02,12,41,3.30
2013,10,02,12,42,2.90
2013,10,02,12,43,2.00
2013,10,02,12,44,4.30
2013,10,02,12,45,3.80
2013,10,02,12,46,2.00
2013,10,02,12,47,2.20
2013,10,02,12,48,3.70
2013,10,02,12,49,2.20
2013,10,02,12,50,2.10
2013,10,02,12,51,3.80
2013,10,02,12,52,5.30
2013,10,02,12,53,3.10
2013,10,02,12,54,4.80
2013,10,02,12,55,8.20
2013,10,02,12,56,5.90
2013,10,02,12,57,3.10
2013,10,02,12,58,2.80
2013,10,02,12,59,5.40
2013,10,02,13,00,4.50
2013,10,02,13,01,2.60
2013,10,02,13,02,4.40
2013,10,02,13,03,3.70
2013,10,02,13,04,5.50
2013,10,02,13,05,2.30
2013,10,02,13,06,4.20
2013,10,02,13,07,6.10
2013,10,02,13,08,1.90
2013,10,02,13,09,1.70
2013,10,02,13,10,3.90
2013,10,02,13,11,4.40
2013,10,02,13,12,3.20
2013,10,02,13,13,2.90
2013,10,02,13,14,5.80
2013,10,02,13,15,4.00
2013,10,02,13,16,4.90
2013,10,02,13,17,5.40
2013,10,02,13,18,5.10
2013,10,02,13,19,5.20
2013,10,02,13,20,5.40
2013,10,02,13,21,5.20
2013,10,02,13,22,3.90
2013,10,02,13,23,2.40
2013,10,02,13,24,3.50
2013,10,02,13,25,3.80
2013,10,02,13,26,3.80
2013,10,02,13,27,4.20
2013,10,02,13,28,4.60
2013,10,02,13,29,5.60
2013,10,02,13,30,5.90
2013,10,02,13,31,7.40
2013,10,02,13,32,4.50
2013,10,02,13,33,3.40
2013,10,02,13,34,4.00
2013,10,02,13,35,4.50
2013,10,02,13,36,4.20
2013,10,02,13,37,2.40
2013,10,02,13,38,5.40
2013,10,02,13,39,4.40
2013,10,02,13,40,4.70
2013,10,02,13,41,2.60
2013,10,02,13,42,3.60
2013,10,02,13,43,2.80
2013,10,02,13,44,3.40
2013,10,02,13,45,2.20
2013,10,02,13,46,4.60
2013,10,02,13,47,5.30
2013,10,02,13,48,5.00
2013,10,02,13,49,4.70
2013,10,02,13,50,3.50
2013,10,02,13,51,3.80
2013,10,02,13,52,7.50
2013,10,02,13,53,6.20
2013,10,02,13,54,6.90
2013,10,02,13,55,5.00
2013,10,02,13,56,2.30
2013,10,02,13,57,0.70
2013,10,02,13,58,1.10
2013,10,02,13,59,4.20
2013,10,02,14,00,5.10
2013,10,02,14,01,8.80
2013,10,02,14,02,7.80
2013,10,02,14,03,7.90
2013,10,02,14,04,4.20
2013,10,02,14,05,3.60
2013,10,02,14,06,3.30
2013,10,02,14,07,4.00
2013,10,02,14,08,3.60
2013,10,02,14,09,3.50
2013,10,02,14,10,3.80
2013,10,02,14,11,3.30
2013,10,02,14,12,4.30
2013,10,02,14,13,3.90
2013,10,02,14,14,4.10
2013,10,02,14,15,4.30
2013,10,02,14,16,4.60
2013,10,02,14,17,5.70
2013,10,02,14,18,7.80
2013,10,02,14,19,5.50
2013,10,02,14,20,6.10
2013,10,02,14,21,5.20
2013,10,02,14,22,5.00
2013,10,02,14,23,8.70
2013,10,02,14,24,6.90
2013,10,02,14,25,6.90
2013,10,02,14,26,4.50
2013,10,02,14,27,4.00
2013,10,02,14,28,7.40
2013,10,02,14,29,9.20
2013,10,02,14,30,10.10
2013,10,02,14,31,8.30
2013,10,02,14,32,4.50
2013,10,02,14,33,4.70
2013,10,02,14,34,4.20
2013,10,02,14,35,5.30
2013,10,02,14,36,3.30
2013,10,02,14,37,2.50
2013,10,02,14,38,2.50
2013,10,02,14,39,4.00
2013,10,02,14,40,3.70
2013,10,02,14,41,4.90
2013,10,02,14,42,6.20
2013,10,02,14,43,3.80
2013,10,02,14,44,5.20
2013,10,02,14,45,5.90
2013,10,02,14,46,6.50
2013,10,02,14,47,4.60
2013,10,02,14,48,6.20
2013,10,02,14,49,4.70
2013,10,02,14,50,6.70
2013,10,02,14,51,3.40
2013,10,02,14,52,4.20
2013,10,02,14,53,4.50
2013,10,02,14,54,4.90
2013,10,02,14,55,3.20
2013,10,02,14,56,2.40
2013,10,02,14,57,2.70
2013,10,02,14,58,2.00
2013,10,02,14,59,2.10
2013,10,02,15,00,1.70
2013,10,02,15,01,3.60
2013,10,02,15,02,2.00
2013,10,02,15,03,2.50
2013,10,02,15,04,3.00
2013,10,02,15,05,2.10
2013,10,02,15,06,2.70
2013,10,02,15,07,1.70
2013,10,02,15,08,1.50
2013,10,02,15,09,0.30
2013,10,02,15,10,1.40
2013,10,02,15,11,4.40
2013,10,02,15,12,2.80
2013,10,02,15,13,1.20
2013,10,02,15,14,1.10
2013,10,02,15,15,1.30
2013,10,02,15,16,0.30
2013,10,02,15,17,0.60
2013,10,02,15,18,2.70
2013,10,02,15,19,1.50
2013,10,02,15,20,3.50
2013,10,02,15,21,2.80
2013,10,02,15,22,2.10
2013,10,02,15,23,2.30
2013,10,02,15,24,2.10
2013,10,02,15,25,4.80
2013,10,02,15,26,4.20
2013,10,02,15,27,4.50
2013,10,02,15,28,4.70
2013,10,02,15,29,4.50
2013,10,02,15,30,2.90
2013,10,02,15,31,1.50
2013,10,02,15,32,2.30
2013,10,02,15,33,2.10
2013,10,02,15,34,4.00
2013,10,02,15,35,4.30
2013,10,02,15,36,5.00
2013,10,02,15,37,3.40
2013,10,02,15,38,3.20
2013,10,02,15,39,2.60
2013,10,02,15,40,1.60
2013,10,02,15,41,4.00
2013,10,02,15,42,2.70
2013,10,02,15,43,3.10
2013,10,02,15,44,1.90
2013,10,02,15,45,3.60
2013,10,02,15,46,3.10
2013,10,02,15,47,3.40
2013,10,02,15,48,2.20
2013,10,02,15,49,3.70
2013,10,02,15,50,4.30
2013,10,02,15,51,4.80
2013,10,02,15,52,4.30
2013,10,02,15,53,1.90
2013,10,02,15,54,4.00
2013,10,02,15,55,3.30
2013,10,02,15,56,0.60
2013,10,02,15,57,3.20
2013,10,02,15,58,3.70
2013,10,02,15,59,4.20
2013,10,02,16,00,4.70
2013,10,02,16,01,3.10
2013,10,02,16,02,3.10
2013,10,02,16,03,3.70
2013,10,02,16,04,4.00
2013,10,02,16,05,3.30
2013,10,02,16,06,2.60
2013,10,02,16,07,2.00
2013,10,02,16,08,1.10
2013,10,02,16,09,4.40
2013,10,02,16,10,4.90
2013,10,02,16,11,7.00
2013,10,02,16,12,5.10
2013,10,02,16,13,5.70
2013,10,02,16,14,5.10
2013,10,02,16,15,3.90
2013,10,02,16,16,4.40
2013,10,02,16,17,4.80
2013,10,02,16,18,3.20
2013,10,02,16,19,5.40
2013,10,02,16,20,3.10
2013,10,02,16,21,0.30
2013,10,02,16,22,1.20
2013,10,02,16,23,1.10
2013,10,02,16,24,2.80
2013,10,02,16,25,3.80
2013,10,02,16,26,4.60
2013,10,02,16,27,2.50
2013,10,02,16,28,5.60
2013,10,02,16,29,5.70
2013,10,02,16,30,4.50
2013,10,02,16,31,3.80
2013,10,02,16,32,3.70
2013,10,02,16,33,2.70
2013,10,02,16,34,3.50
2013,10,02,16,35,3.50
2013,10,02,16,36,4.60
2013,10,02,16,37,3.70
2013,10,02,16,38,5.80
2013,10,02,16,39,6.20
2013,10,02,16,40,2.30
2013,10,02,16,41,2.10
2013,10,02,16,42,3.40
2013,10,02,16,43,4.40
2013,10,02,16,44,4.30
2013,10,02,16,45,1.50
2013,10,02,16,46,3.10
2013,10,02,16,47,5.50
2013,10,02,16,48,4.90
2013,10,02,16,49,3.40
2013,10,02,16,50,3.50
2013,10,02,16,51,1.50
2013,10,02,16,52,5.50
2013,10,02,16,53,4.40
2013,10,02,16,54,3.80
2013,10,02,16,55,2.50
2013,10,02,16,56,2.80
2013,10,02,16,57,4.70
2013,10,02,16,58,4.40
2013,10,02,16,59,4.00
2013,10,02,17,00,2.10
2013,10,02,17,01,2.10
2013,10,02,17,02,2.80
2013,10,02,17,03,2.60
2013,10,02,17,04,2.60
2013,10,02,17,05,3.70
2013,10,02,17,06,2.80
2013,10,02,17,07,2.70
2013,10,02,17,08,1.90
2013,10,02,17,09,2.90
2013,10,02,17,10,3.30
2013,10,02,17,11,2.60
2013,10,02,17,12,2.60
2013,10,02,17,13,0.60
2013,10,02,17,14,2.40
2013,10,02,17,15,1.80
2013,10,02,17,16,3.30
2013,10,02,17,17,3.30
2013,10,02,17,18,3.60
2013,10,02,17,19,1.70
2013,10,02,17,20,1.90
2013,10,02,17,21,1.00
2013,10,02,17,22,3.20
2013,10,02,17,23,2.10
2013,10,02,17,24,1.50
2013,10,02,17,25,3.40
2013,10,02,17,26,2.00
2013,10,02,17,27,0.40
2013,10,02,17,28,2.40
2013,10,02,17,29,1.80
2013,10,02,17,30,0.10
2013,10,02,17,31,0.00
2013,10,02,17,32,0.00
2013,10,02,17,33,0.40
2013,10,02,17,34,0.50
2013,10,02,17,35,0.10
2013,10,02,17,36,0.20
2013,10,02,17,37,0.10
2013,10,02,17,38,1.40
2013,10,02,17,39,0.80
2013,10,02,17,40,0.00
2013,10,02,17,41,0.60
2013,10,02,17,42,0.00
2013,10,02,17,43,0.00
2013,10,02,17,44,0.00
2013,10,02,17,45,0.00
2013,10,02,17,46,0.00
2013,10,02,17,47,0.00
2013,10,02,17,48,0.00
2013,10,02,17,49,0.00
2013,10,02,17,50,0.00
2013,10,02,17,51,0.10
2013,10,02,17,52,0.00
2013,10,02,17,53,0.00
2013,10,02,17,54,0.00
2013,10,02,17,55,0.00
2013,10,02,17,56,0.00
2013,10,02,17,57,0.00
2013,10,02,17,58,0.00
2013,10,02,17,59,0.00
2013,10,02,18,00,0.00
2013,10,02,18,01,0.00
2013,10,02,18,02,0.00
2013,10,02,18,03,0.00
2013,10,02,18,04,0.00
2013,10,02,18,05,0.40
2013,10,02,18,06,0.10